Location: Bas-Clignon
(44.2000°N, 6.6333°E)
Time: 13:15:00
(UTC+00:00)

Cosmos 2322 - Pass Details

Date: 03 February 2023
Orbit: 841 x 854 km, 71.0° (Epoch: 20 March)

Event Time Altitude Azimuth Distance (km) Brightness Sun altitude
Rises 18:51:57 0° 194° (SSW) 3,404 7.0 -22.9°
Reaches altitude 10° 18:54:24 10° 191° (S) 2,474 6.2 -23.3°
Maximum altitude 19:00:01 65° 111° (ESE) 940 3.6 -24.3°
Enters shadow 19:00:33 61° 81° (E) 965 3.6 -24.4°
